Year,Month,Day,Hour,Minute,Value (Times are PST for temperature in C)
2015,06,29,00,00,19.20
2015,06,29,00,01,19.20
2015,06,29,00,02,19.20
2015,06,29,00,03,19.20
2015,06,29,00,04,19.20
2015,06,29,00,05,19.20
2015,06,29,00,06,19.20
2015,06,29,00,07,19.20
2015,06,29,00,08,19.20
2015,06,29,00,09,19.20
2015,06,29,00,10,19.20
2015,06,29,00,11,19.30
2015,06,29,00,12,19.30
2015,06,29,00,13,19.30
2015,06,29,00,14,19.20
2015,06,29,00,15,19.20
2015,06,29,00,16,19.20
2015,06,29,00,17,19.20
2015,06,29,00,18,19.20
2015,06,29,00,19,19.20
2015,06,29,00,20,19.20
2015,06,29,00,21,19.20
2015,06,29,00,22,19.20
2015,06,29,00,23,19.20
2015,06,29,00,24,19.20
2015,06,29,00,25,19.10
2015,06,29,00,26,19.10
2015,06,29,00,27,19.10
2015,06,29,00,28,19.10
2015,06,29,00,29,19.10
2015,06,29,00,30,19.10
2015,06,29,00,31,19.10
2015,06,29,00,32,19.10
2015,06,29,00,33,19.10
2015,06,29,00,34,19.10
2015,06,29,00,35,19.10
2015,06,29,00,36,19.00
2015,06,29,00,37,19.00
2015,06,29,00,38,19.00
2015,06,29,00,39,19.00
2015,06,29,00,40,19.00
2015,06,29,00,41,18.90
2015,06,29,00,42,18.90
2015,06,29,00,43,18.90
2015,06,29,00,44,18.90
2015,06,29,00,45,18.90
2015,06,29,00,46,18.90
2015,06,29,00,47,18.90
2015,06,29,00,48,18.90
2015,06,29,00,49,18.90
2015,06,29,00,50,18.90
2015,06,29,00,51,18.90
2015,06,29,00,52,18.90
2015,06,29,00,53,18.90
2015,06,29,00,54,18.80
2015,06,29,00,55,18.80
2015,06,29,00,56,18.80
2015,06,29,00,57,18.80
2015,06,29,00,58,18.80
2015,06,29,00,59,18.80
2015,06,29,01,00,18.80
2015,06,29,01,01,18.80
2015,06,29,01,02,18.80
2015,06,29,01,03,18.80
2015,06,29,01,04,18.80
2015,06,29,01,05,18.80
2015,06,29,01,06,18.80
2015,06,29,01,07,18.80
2015,06,29,01,08,18.80
2015,06,29,01,09,18.80
2015,06,29,01,10,18.80
2015,06,29,01,11,18.80
2015,06,29,01,12,18.80
2015,06,29,01,13,18.80
2015,06,29,01,14,18.80
2015,06,29,01,15,18.80
2015,06,29,01,16,18.70
2015,06,29,01,17,18.70
2015,06,29,01,18,18.70
2015,06,29,01,19,18.70
2015,06,29,01,20,18.70
2015,06,29,01,21,18.70
2015,06,29,01,22,18.70
2015,06,29,01,23,18.70
2015,06,29,01,24,18.70
2015,06,29,01,25,18.70
2015,06,29,01,26,18.70
2015,06,29,01,27,18.70
2015,06,29,01,28,18.70
2015,06,29,01,29,18.70
2015,06,29,01,30,18.70
2015,06,29,01,31,18.70
2015,06,29,01,32,18.70
2015,06,29,01,33,18.70
2015,06,29,01,34,18.70
2015,06,29,01,35,18.70
2015,06,29,01,36,18.70
2015,06,29,01,37,18.70
2015,06,29,01,38,18.70
2015,06,29,01,39,18.60
2015,06,29,01,40,18.60
2015,06,29,01,41,18.60
2015,06,29,01,42,18.60
2015,06,29,01,43,18.60
2015,06,29,01,44,18.60
2015,06,29,01,45,18.60
2015,06,29,01,46,18.60
2015,06,29,01,47,18.60
2015,06,29,01,48,18.60
2015,06,29,01,49,18.60
2015,06,29,01,50,18.60
2015,06,29,01,51,18.50
2015,06,29,01,52,18.50
2015,06,29,01,53,18.50
2015,06,29,01,54,18.50
2015,06,29,01,55,18.50
2015,06,29,01,56,18.50
2015,06,29,01,57,18.50
2015,06,29,01,58,18.50
2015,06,29,01,59,18.40
2015,06,29,02,00,18.40
2015,06,29,02,01,18.40
2015,06,29,02,02,18.40
2015,06,29,02,03,18.40
2015,06,29,02,04,18.40
2015,06,29,02,05,18.40
2015,06,29,02,06,18.40
2015,06,29,02,07,18.40
2015,06,29,02,08,18.40
2015,06,29,02,09,18.40
2015,06,29,02,10,18.30
2015,06,29,02,11,18.30
2015,06,29,02,12,18.30
2015,06,29,02,13,18.30
2015,06,29,02,14,18.30
2015,06,29,02,15,18.30
2015,06,29,02,16,18.30
2015,06,29,02,17,18.30
2015,06,29,02,18,18.30
2015,06,29,02,19,18.30
2015,06,29,02,20,18.30
2015,06,29,02,21,18.30
2015,06,29,02,22,18.30
2015,06,29,02,23,18.30
2015,06,29,02,24,18.40
2015,06,29,02,25,18.40
2015,06,29,02,26,18.30
2015,06,29,02,27,18.30
2015,06,29,02,28,18.30
2015,06,29,02,29,18.30
2015,06,29,02,30,18.30
2015,06,29,02,31,18.30
2015,06,29,02,32,18.30
2015,06,29,02,33,18.30
2015,06,29,02,34,18.30
2015,06,29,02,35,18.30
2015,06,29,02,36,18.30
2015,06,29,02,37,18.30
2015,06,29,02,38,18.30
2015,06,29,02,39,18.30
2015,06,29,02,40,18.30
2015,06,29,02,41,18.20
2015,06,29,02,42,18.20
2015,06,29,02,43,18.20
2015,06,29,02,44,18.20
2015,06,29,02,45,18.20
2015,06,29,02,46,18.20
2015,06,29,02,47,18.20
2015,06,29,02,48,18.20
2015,06,29,02,49,18.20
2015,06,29,02,50,18.20
2015,06,29,02,51,18.20
2015,06,29,02,52,18.20
2015,06,29,02,53,18.20
2015,06,29,02,54,18.20
2015,06,29,02,55,18.20
2015,06,29,02,56,18.20
2015,06,29,02,57,18.20
2015,06,29,02,58,18.20
2015,06,29,02,59,18.20
2015,06,29,03,00,18.10
2015,06,29,03,01,18.10
2015,06,29,03,02,18.10
2015,06,29,03,03,18.10
2015,06,29,03,04,18.10
2015,06,29,03,05,18.10
2015,06,29,03,06,18.10
2015,06,29,03,07,18.00
2015,06,29,03,08,18.00
2015,06,29,03,09,18.00
2015,06,29,03,10,18.00
2015,06,29,03,11,17.90
2015,06,29,03,12,17.90
2015,06,29,03,13,17.90
2015,06,29,03,14,17.90
2015,06,29,03,15,17.90
2015,06,29,03,16,18.00
2015,06,29,03,17,18.00
2015,06,29,03,18,18.00
2015,06,29,03,19,18.00
2015,06,29,03,20,18.00
2015,06,29,03,21,17.90
2015,06,29,03,22,17.90
2015,06,29,03,23,18.00
2015,06,29,03,24,18.00
2015,06,29,03,25,18.00
2015,06,29,03,26,18.00
2015,06,29,03,27,18.00
2015,06,29,03,28,17.90
2015,06,29,03,29,17.90
2015,06,29,03,30,17.90
2015,06,29,03,31,17.90
2015,06,29,03,32,17.90
2015,06,29,03,33,17.90
2015,06,29,03,34,17.90
2015,06,29,03,35,17.90
2015,06,29,03,36,17.90
2015,06,29,03,37,17.90
2015,06,29,03,38,17.90
2015,06,29,03,39,17.90
2015,06,29,03,40,17.90
2015,06,29,03,41,17.90
2015,06,29,03,42,17.90
2015,06,29,03,43,17.90
2015,06,29,03,44,17.90
2015,06,29,03,49,17.90
2015,06,29,03,50,17.90
2015,06,29,03,51,17.90
2015,06,29,03,52,17.90
2015,06,29,03,53,17.90
2015,06,29,03,54,17.90
2015,06,29,03,55,17.90
2015,06,29,03,56,17.90
2015,06,29,03,57,17.90
2015,06,29,03,58,17.90
2015,06,29,03,59,17.90
2015,06,29,04,00,17.90
2015,06,29,04,01,17.90
2015,06,29,04,02,17.90
2015,06,29,04,03,17.90
2015,06,29,04,04,17.90
2015,06,29,04,05,17.90
2015,06,29,04,06,17.90
2015,06,29,04,07,17.90
2015,06,29,04,08,17.90
2015,06,29,04,09,17.80
2015,06,29,04,10,17.80
2015,06,29,04,11,17.80
2015,06,29,04,12,17.80
2015,06,29,04,13,17.80
2015,06,29,04,14,17.80
2015,06,29,04,15,17.80
2015,06,29,04,16,17.80
2015,06,29,04,17,17.80
2015,06,29,04,18,17.80
2015,06,29,04,19,17.80
2015,06,29,04,20,17.80
2015,06,29,04,21,17.80
2015,06,29,04,22,17.90
2015,06,29,04,23,17.90
2015,06,29,04,24,17.90
2015,06,29,04,25,17.80
2015,06,29,04,26,17.80
2015,06,29,04,27,17.80
2015,06,29,04,28,17.80
2015,06,29,04,29,17.80
2015,06,29,04,30,17.80
2015,06,29,04,31,17.80
2015,06,29,04,32,17.80
2015,06,29,04,33,17.80
2015,06,29,04,34,17.70
2015,06,29,04,35,17.70
2015,06,29,04,36,17.70
2015,06,29,04,37,17.70
2015,06,29,04,38,17.70
2015,06,29,04,39,17.70
2015,06,29,04,40,17.70
2015,06,29,04,41,17.70
2015,06,29,04,42,17.70
2015,06,29,04,43,17.70
2015,06,29,04,44,17.70
2015,06,29,04,45,17.70
2015,06,29,04,46,17.70
2015,06,29,04,47,17.70
2015,06,29,04,48,17.70
2015,06,29,04,49,17.70
2015,06,29,04,50,17.70
2015,06,29,04,51,17.70
2015,06,29,04,52,17.70
2015,06,29,04,53,17.70
2015,06,29,04,54,17.60
2015,06,29,04,55,17.60
2015,06,29,04,56,17.60
2015,06,29,04,57,17.60
2015,06,29,04,58,17.60
2015,06,29,04,59,17.60
2015,06,29,05,00,17.60
2015,06,29,05,01,17.70
2015,06,29,05,02,17.70
2015,06,29,05,03,17.70
2015,06,29,05,04,17.70
2015,06,29,05,05,17.70
2015,06,29,05,06,17.70
2015,06,29,05,07,17.70
2015,06,29,05,08,17.70
2015,06,29,05,09,17.70
2015,06,29,05,10,17.70
2015,06,29,05,11,17.60
2015,06,29,05,12,17.60
2015,06,29,05,13,17.60
2015,06,29,05,14,17.60
2015,06,29,05,15,17.60
2015,06,29,05,16,17.60
2015,06,29,05,17,17.60
2015,06,29,05,18,17.60
2015,06,29,05,19,17.60
2015,06,29,05,20,17.60
2015,06,29,05,21,17.60
2015,06,29,05,22,17.70
2015,06,29,05,23,17.70
2015,06,29,05,24,17.70
2015,06,29,05,25,17.70
2015,06,29,05,26,17.60
2015,06,29,05,27,17.60
2015,06,29,05,28,17.60
2015,06,29,05,29,17.60
2015,06,29,05,30,17.60
2015,06,29,05,31,17.60
2015,06,29,05,32,17.60
2015,06,29,05,33,17.60
2015,06,29,05,34,17.60
2015,06,29,05,35,17.60
2015,06,29,05,36,17.60
2015,06,29,05,37,17.50
2015,06,29,05,38,17.50
2015,06,29,05,39,17.50
2015,06,29,05,40,17.50
2015,06,29,05,41,17.60
2015,06,29,05,42,17.60
2015,06,29,05,43,17.60
2015,06,29,05,44,17.60
2015,06,29,05,45,17.60
2015,06,29,05,46,17.60
2015,06,29,05,47,17.60
2015,06,29,05,48,17.60
2015,06,29,05,49,17.60
2015,06,29,05,50,17.60
2015,06,29,05,51,17.60
2015,06,29,05,52,17.60
2015,06,29,05,53,17.60
2015,06,29,05,54,17.60
2015,06,29,05,55,17.60
2015,06,29,05,56,17.60
2015,06,29,05,57,17.60
2015,06,29,05,58,17.60
2015,06,29,05,59,17.60
2015,06,29,06,00,17.60
2015,06,29,06,01,17.60
2015,06,29,06,02,17.60
2015,06,29,06,03,17.60
2015,06,29,06,04,17.60
2015,06,29,06,05,17.60
2015,06,29,06,06,17.60
2015,06,29,06,07,17.60
2015,06,29,06,08,17.60
2015,06,29,06,09,17.60
2015,06,29,06,10,17.60
2015,06,29,06,11,17.60
2015,06,29,06,12,17.60
2015,06,29,06,13,17.60
2015,06,29,06,14,17.60
2015,06,29,06,15,17.60
2015,06,29,06,16,17.60
2015,06,29,06,17,17.60
2015,06,29,06,18,17.70
2015,06,29,06,19,17.70
2015,06,29,06,20,17.70
2015,06,29,06,21,17.70
2015,06,29,06,22,17.70
2015,06,29,06,23,17.70
2015,06,29,06,24,17.70
2015,06,29,06,25,17.70
2015,06,29,06,26,17.70
2015,06,29,06,27,17.70
2015,06,29,06,28,17.70
2015,06,29,06,29,17.70
2015,06,29,06,30,17.80
2015,06,29,06,31,17.80
2015,06,29,06,32,17.80
2015,06,29,06,33,17.80
2015,06,29,06,34,17.80
2015,06,29,06,35,17.80
2015,06,29,06,36,17.80
2015,06,29,06,37,17.80
2015,06,29,06,38,17.80
2015,06,29,06,39,17.80
2015,06,29,06,40,17.80
2015,06,29,06,41,17.80
2015,06,29,06,42,17.80
2015,06,29,06,43,17.80
2015,06,29,06,44,17.80
2015,06,29,06,45,17.80
2015,06,29,06,46,17.80
2015,06,29,06,47,17.90
2015,06,29,06,48,17.90
2015,06,29,06,49,17.90
2015,06,29,06,50,18.00
2015,06,29,06,51,18.00
2015,06,29,06,52,18.10
2015,06,29,06,53,18.20
2015,06,29,06,54,18.20
2015,06,29,06,55,18.30
2015,06,29,06,56,18.30
2015,06,29,06,57,18.30
2015,06,29,06,58,18.40
2015,06,29,06,59,18.40
2015,06,29,07,00,18.50
2015,06,29,07,01,18.60
2015,06,29,07,02,18.60
2015,06,29,07,03,18.60
2015,06,29,07,04,18.70
2015,06,29,07,05,18.70
2015,06,29,07,06,18.70
2015,06,29,07,07,18.80
2015,06,29,07,08,18.80
2015,06,29,07,09,18.90
2015,06,29,07,10,18.90
2015,06,29,07,11,18.90
2015,06,29,07,12,18.90
2015,06,29,07,13,18.90
2015,06,29,07,14,18.90
2015,06,29,07,15,18.90
2015,06,29,07,16,18.90
2015,06,29,07,17,18.90
2015,06,29,07,18,18.90
2015,06,29,07,19,18.90
2015,06,29,07,20,19.00
2015,06,29,07,21,19.00
2015,06,29,07,22,19.00
2015,06,29,07,23,19.00
2015,06,29,07,24,19.00
2015,06,29,07,25,19.00
2015,06,29,07,26,19.10
2015,06,29,07,27,19.10
2015,06,29,07,28,19.10
2015,06,29,07,29,19.20
2015,06,29,07,30,19.30
2015,06,29,07,31,19.30
2015,06,29,07,32,19.30
2015,06,29,07,33,19.40
2015,06,29,07,34,19.40
2015,06,29,07,35,19.40
2015,06,29,07,36,19.40
2015,06,29,07,37,19.40
2015,06,29,07,38,19.40
2015,06,29,07,39,19.50
2015,06,29,07,40,19.50
2015,06,29,07,41,19.60
2015,06,29,07,42,19.60
2015,06,29,07,43,19.70
2015,06,29,07,44,19.70
2015,06,29,07,45,19.70
2015,06,29,07,46,19.80
2015,06,29,07,47,19.90
2015,06,29,07,48,19.90
2015,06,29,07,49,20.00
2015,06,29,07,50,20.00
2015,06,29,07,51,20.10
2015,06,29,07,52,20.20
2015,06,29,07,53,20.30
2015,06,29,07,54,20.40
2015,06,29,07,55,20.50
2015,06,29,07,56,20.70
2015,06,29,07,57,20.70
2015,06,29,07,58,20.80
2015,06,29,07,59,20.80
2015,06,29,08,00,20.80
2015,06,29,08,01,20.80
2015,06,29,08,02,20.80
2015,06,29,08,03,20.80
2015,06,29,08,04,20.80
2015,06,29,08,05,20.80
2015,06,29,08,06,20.70
2015,06,29,08,07,20.70
2015,06,29,08,08,20.70
2015,06,29,08,09,20.70
2015,06,29,08,10,20.60
2015,06,29,08,11,20.60
2015,06,29,08,12,20.60
2015,06,29,08,13,20.60
2015,06,29,08,14,20.60
2015,06,29,08,15,20.60
2015,06,29,08,16,20.70
2015,06,29,08,17,20.80
2015,06,29,08,18,20.90
2015,06,29,08,19,21.00
2015,06,29,08,20,21.20
2015,06,29,08,21,21.30
2015,06,29,08,22,21.50
2015,06,29,08,23,21.60
2015,06,29,08,24,21.80
2015,06,29,08,25,21.90
2015,06,29,08,26,22.00
2015,06,29,08,27,22.10
2015,06,29,08,28,22.20
2015,06,29,08,29,22.30
2015,06,29,08,30,22.40
2015,06,29,08,31,22.40
2015,06,29,08,32,22.50
2015,06,29,08,33,22.60
2015,06,29,08,34,22.60
2015,06,29,08,35,22.70
2015,06,29,08,36,22.80
2015,06,29,08,37,22.80
2015,06,29,08,38,22.90
2015,06,29,08,39,22.90
2015,06,29,08,40,23.00
2015,06,29,08,41,23.10
2015,06,29,08,42,23.10
2015,06,29,08,43,23.10
2015,06,29,08,44,23.10
2015,06,29,08,45,23.10
2015,06,29,08,46,23.10
2015,06,29,08,47,23.10
2015,06,29,08,48,23.10
2015,06,29,08,49,23.00
2015,06,29,08,50,23.10
2015,06,29,08,51,23.10
2015,06,29,08,52,23.20
2015,06,29,08,53,23.30
2015,06,29,08,54,23.40
2015,06,29,08,55,23.60
2015,06,29,08,56,23.80
2015,06,29,08,57,23.90
2015,06,29,08,58,23.90
2015,06,29,08,59,23.90
2015,06,29,09,00,23.90
2015,06,29,09,01,23.90
2015,06,29,09,02,23.90
2015,06,29,09,03,23.80
2015,06,29,09,04,23.80
2015,06,29,09,05,23.80
2015,06,29,09,06,23.90
2015,06,29,09,07,23.90
2015,06,29,09,08,24.00
2015,06,29,09,09,24.00
2015,06,29,09,10,24.00
2015,06,29,09,11,23.90
2015,06,29,09,12,23.90
2015,06,29,09,13,23.90
2015,06,29,09,14,23.80
2015,06,29,09,15,23.80
2015,06,29,09,16,23.80
2015,06,29,09,17,23.90
2015,06,29,09,18,23.90
2015,06,29,09,19,23.90
2015,06,29,09,20,24.00
2015,06,29,09,21,23.90
2015,06,29,09,22,23.90
2015,06,29,09,23,23.90
2015,06,29,09,24,23.80
2015,06,29,09,25,23.80
2015,06,29,09,26,23.70
2015,06,29,09,27,23.60
2015,06,29,09,28,23.40
2015,06,29,09,29,23.30
2015,06,29,09,30,23.30
2015,06,29,09,31,23.30
2015,06,29,09,32,23.30
2015,06,29,09,33,23.30
2015,06,29,09,34,23.30
2015,06,29,09,35,23.30
2015,06,29,09,36,23.30
2015,06,29,09,37,23.20
2015,06,29,09,38,23.20
2015,06,29,09,39,23.20
2015,06,29,09,40,23.30
2015,06,29,09,41,23.50
2015,06,29,09,42,23.60
2015,06,29,09,43,23.70
2015,06,29,09,44,23.90
2015,06,29,09,45,24.00
2015,06,29,09,46,24.10
2015,06,29,09,47,24.20
2015,06,29,09,48,24.20
2015,06,29,09,49,24.30
2015,06,29,09,50,24.30
2015,06,29,09,51,24.40
2015,06,29,09,52,24.40
2015,06,29,09,53,24.40
2015,06,29,09,54,24.40
2015,06,29,09,55,24.40
2015,06,29,09,56,24.50
2015,06,29,09,57,24.40
2015,06,29,09,58,24.40
2015,06,29,09,59,24.40
2015,06,29,10,00,24.30
2015,06,29,10,01,24.20
2015,06,29,10,02,24.20
2015,06,29,10,03,24.20
2015,06,29,10,04,24.20
2015,06,29,10,05,24.30
2015,06,29,10,06,24.40
2015,06,29,10,07,24.50
2015,06,29,10,08,24.60
2015,06,29,10,09,24.70
2015,06,29,10,10,24.80
2015,06,29,10,11,24.80
2015,06,29,10,12,24.80
2015,06,29,10,13,24.80
2015,06,29,10,14,24.90
2015,06,29,10,15,25.00
2015,06,29,10,16,25.10
2015,06,29,10,17,25.20
2015,06,29,10,18,25.20
2015,06,29,10,19,25.30
2015,06,29,10,20,25.30
2015,06,29,10,21,25.30
2015,06,29,10,22,25.40
2015,06,29,10,23,25.40
2015,06,29,10,24,25.40
2015,06,29,10,25,25.40
2015,06,29,10,26,25.40
2015,06,29,10,27,25.40
2015,06,29,10,28,25.50
2015,06,29,10,29,25.60
2015,06,29,10,30,25.70
2015,06,29,10,31,25.80
2015,06,29,10,32,25.90
2015,06,29,10,33,25.90
2015,06,29,10,34,25.90
2015,06,29,10,35,25.90
2015,06,29,10,36,26.00
2015,06,29,10,37,26.00
2015,06,29,10,38,26.10
2015,06,29,10,39,26.10
2015,06,29,10,40,26.20
2015,06,29,10,41,26.20
2015,06,29,10,42,26.30
2015,06,29,10,43,26.40
2015,06,29,10,44,26.40
2015,06,29,10,45,26.50
2015,06,29,10,46,26.60
2015,06,29,10,47,26.60
2015,06,29,10,48,26.60
2015,06,29,10,49,26.50
2015,06,29,10,50,26.40
2015,06,29,10,51,26.40
2015,06,29,10,52,26.30
2015,06,29,10,53,26.30
2015,06,29,10,54,26.20
2015,06,29,10,55,26.30
2015,06,29,10,56,26.30
2015,06,29,10,57,26.30
2015,06,29,10,58,26.20
2015,06,29,10,59,26.10
2015,06,29,11,00,26.00
2015,06,29,11,01,26.00
2015,06,29,11,02,26.10
2015,06,29,11,03,26.10
2015,06,29,11,04,26.20
2015,06,29,11,05,26.30
2015,06,29,11,06,26.30
2015,06,29,11,07,26.40
2015,06,29,11,08,26.40
2015,06,29,11,09,26.50
2015,06,29,11,10,26.50
2015,06,29,11,11,26.50
2015,06,29,11,12,26.40
2015,06,29,11,13,26.40
2015,06,29,11,14,26.40
2015,06,29,11,15,26.40
2015,06,29,11,16,26.40
2015,06,29,11,17,26.40
2015,06,29,11,18,26.40
2015,06,29,11,19,26.40
2015,06,29,11,20,26.30
2015,06,29,11,21,26.20
2015,06,29,11,22,26.20
2015,06,29,11,23,26.10
2015,06,29,11,24,26.10
2015,06,29,11,25,26.10
2015,06,29,11,26,26.10
2015,06,29,11,27,26.00
2015,06,29,11,28,25.90
2015,06,29,11,29,25.90
2015,06,29,11,30,26.00
2015,06,29,11,31,26.10
2015,06,29,11,32,26.20
2015,06,29,11,33,26.10
2015,06,29,11,34,26.00
2015,06,29,11,35,26.00
2015,06,29,11,36,26.00
2015,06,29,11,37,25.90
2015,06,29,11,38,25.90
2015,06,29,11,39,25.90
2015,06,29,11,40,25.90
2015,06,29,11,41,25.80
2015,06,29,11,42,25.70
2015,06,29,11,43,25.70
2015,06,29,11,44,25.70
2015,06,29,11,45,25.70
2015,06,29,11,46,25.70
2015,06,29,11,47,25.80
2015,06,29,11,48,25.70
2015,06,29,11,49,25.80
2015,06,29,11,50,25.80
2015,06,29,11,51,25.90
2015,06,29,11,52,25.90
2015,06,29,11,53,26.00
2015,06,29,11,54,25.90
2015,06,29,11,55,25.90
2015,06,29,11,56,25.90
2015,06,29,11,57,25.90
2015,06,29,11,58,25.80
2015,06,29,11,59,25.70
2015,06,29,12,00,25.70
2015,06,29,12,01,25.60
2015,06,29,12,02,25.60
2015,06,29,12,03,25.70
2015,06,29,12,04,25.80
2015,06,29,12,05,25.90
2015,06,29,12,06,25.90
2015,06,29,12,07,25.90
2015,06,29,12,08,25.90
2015,06,29,12,09,25.90
2015,06,29,12,10,25.90
2015,06,29,12,11,25.90
2015,06,29,12,12,26.00
2015,06,29,12,13,26.10
2015,06,29,12,14,26.20
2015,06,29,12,15,26.20
2015,06,29,12,16,26.30
2015,06,29,12,17,26.30
2015,06,29,12,18,26.20
2015,06,29,12,19,26.20
2015,06,29,12,20,26.10
2015,06,29,12,21,26.10
2015,06,29,12,22,26.10
2015,06,29,12,23,26.10
2015,06,29,12,24,26.10
2015,06,29,12,25,26.00
2015,06,29,12,26,25.90
2015,06,29,12,27,25.90
2015,06,29,12,28,25.90
2015,06,29,12,29,25.90
2015,06,29,12,30,26.00
2015,06,29,12,31,26.00
2015,06,29,12,32,26.00
2015,06,29,12,33,26.10
2015,06,29,12,34,26.20
2015,06,29,12,35,26.20
2015,06,29,12,36,26.30
2015,06,29,12,37,26.30
2015,06,29,12,38,26.30
2015,06,29,12,39,26.40
2015,06,29,12,40,26.40
2015,06,29,12,41,26.40
2015,06,29,12,42,26.30
2015,06,29,12,43,26.20
2015,06,29,12,44,26.20
2015,06,29,12,45,26.20
2015,06,29,12,46,26.20
2015,06,29,12,47,26.20
2015,06,29,12,48,26.30
2015,06,29,12,49,26.40
2015,06,29,12,50,26.40
2015,06,29,12,51,26.50
2015,06,29,12,52,26.60
2015,06,29,12,53,26.60
2015,06,29,12,54,26.70
2015,06,29,12,55,26.70
2015,06,29,12,56,26.70
2015,06,29,12,57,26.60
2015,06,29,12,58,26.60
2015,06,29,12,59,26.70
2015,06,29,13,00,26.70
2015,06,29,13,01,26.70
2015,06,29,13,02,26.60
2015,06,29,13,03,26.60
2015,06,29,13,04,26.50
2015,06,29,13,05,26.30
2015,06,29,13,06,26.10
2015,06,29,13,07,25.90
2015,06,29,13,08,25.90
2015,06,29,13,09,25.80
2015,06,29,13,10,25.90
2015,06,29,13,11,25.80
2015,06,29,13,12,25.70
2015,06,29,13,13,25.70
2015,06,29,13,14,25.70
2015,06,29,13,15,25.70
2015,06,29,13,16,25.80
2015,06,29,13,17,25.90
2015,06,29,13,18,26.00
2015,06,29,13,19,26.10
2015,06,29,13,20,26.20
2015,06,29,13,21,26.20
2015,06,29,13,22,26.20
2015,06,29,13,23,26.10
2015,06,29,13,24,26.10
2015,06,29,13,25,26.10
2015,06,29,13,26,26.00
2015,06,29,13,27,26.00
2015,06,29,13,28,26.00
2015,06,29,13,29,26.20
2015,06,29,13,30,26.30
2015,06,29,13,31,26.40
2015,06,29,13,32,26.30
2015,06,29,13,33,26.30
2015,06,29,13,34,26.30
2015,06,29,13,35,26.30
2015,06,29,13,36,26.30
2015,06,29,13,37,26.30
2015,06,29,13,38,26.30
2015,06,29,13,39,26.30
2015,06,29,13,40,26.30
2015,06,29,13,41,26.30
2015,06,29,13,42,26.30
2015,06,29,13,43,26.30
2015,06,29,13,44,26.30
2015,06,29,13,45,26.30
2015,06,29,13,46,26.30
2015,06,29,13,47,26.30
2015,06,29,13,48,26.30
2015,06,29,13,49,26.30
2015,06,29,13,50,26.30
2015,06,29,13,51,26.30
2015,06,29,13,52,26.30
2015,06,29,13,53,26.30
2015,06,29,13,54,26.30
2015,06,29,13,55,26.30
2015,06,29,13,56,26.30
2015,06,29,13,57,26.30
2015,06,29,13,58,26.30
2015,06,29,13,59,26.30
2015,06,29,14,00,26.30
2015,06,29,14,01,26.30
2015,06,29,14,02,26.30
2015,06,29,14,03,26.40
2015,06,29,14,04,26.40
2015,06,29,14,05,26.60
2015,06,29,14,06,26.70
2015,06,29,14,07,26.80
2015,06,29,14,08,26.80
2015,06,29,14,09,26.80
2015,06,29,14,10,26.80
2015,06,29,14,11,26.90
2015,06,29,14,12,27.00
2015,06,29,14,13,27.00
2015,06,29,14,14,27.00
2015,06,29,14,15,27.10
2015,06,29,14,16,27.10
2015,06,29,14,17,27.10
2015,06,29,14,18,27.00
2015,06,29,14,19,27.00
2015,06,29,14,20,27.10
2015,06,29,14,21,27.20
2015,06,29,14,22,27.20
2015,06,29,14,23,27.30
2015,06,29,14,24,27.40
2015,06,29,14,25,27.50
2015,06,29,14,26,27.60
2015,06,29,14,27,27.70
2015,06,29,14,28,27.80
2015,06,29,14,29,27.90
2015,06,29,14,30,27.90
2015,06,29,14,31,27.90
2015,06,29,14,32,27.90
2015,06,29,14,33,27.80
2015,06,29,14,34,27.60
2015,06,29,14,35,27.50
2015,06,29,14,36,27.40
2015,06,29,14,37,27.40
2015,06,29,14,38,27.40
2015,06,29,14,39,27.50
2015,06,29,14,40,27.50
2015,06,29,14,41,27.60
2015,06,29,14,42,27.60
2015,06,29,14,43,27.60
2015,06,29,14,44,27.60
2015,06,29,14,45,27.60
2015,06,29,14,46,27.60
2015,06,29,14,47,27.70
2015,06,29,14,48,27.70
2015,06,29,14,49,27.80
2015,06,29,14,50,27.80
2015,06,29,14,51,27.90
2015,06,29,14,52,27.90
2015,06,29,14,53,27.80
2015,06,29,14,54,27.80
2015,06,29,14,55,27.70
2015,06,29,14,56,27.70
2015,06,29,14,57,27.60
2015,06,29,14,58,27.50
2015,06,29,14,59,27.50
2015,06,29,15,00,27.50
2015,06,29,15,01,27.50
2015,06,29,15,02,27.60
2015,06,29,15,03,27.60
2015,06,29,15,04,27.70
2015,06,29,15,05,27.80
2015,06,29,15,06,27.80
2015,06,29,15,07,27.90
2015,06,29,15,08,28.00
2015,06,29,15,09,28.10
2015,06,29,15,10,28.20
2015,06,29,15,11,28.20
2015,06,29,15,12,28.20
2015,06,29,15,13,28.30
2015,06,29,15,14,28.30
2015,06,29,15,15,28.20
2015,06,29,15,16,28.10
2015,06,29,15,17,27.90
2015,06,29,15,18,27.70
2015,06,29,15,19,27.40
2015,06,29,15,20,27.30
2015,06,29,15,21,27.10
2015,06,29,15,22,26.90
2015,06,29,15,23,26.70
2015,06,29,15,24,26.50
2015,06,29,15,25,26.40
2015,06,29,15,26,26.40
2015,06,29,15,27,26.40
2015,06,29,15,28,26.50
2015,06,29,15,29,26.60
2015,06,29,15,30,26.60
2015,06,29,15,31,26.70
2015,06,29,15,32,26.80
2015,06,29,15,33,26.90
2015,06,29,15,34,27.00
2015,06,29,15,35,27.00
2015,06,29,15,36,27.00
2015,06,29,15,37,27.00
2015,06,29,15,38,27.00
2015,06,29,15,39,27.00
2015,06,29,15,40,26.90
2015,06,29,15,41,26.90
2015,06,29,15,42,26.90
2015,06,29,15,43,26.90
2015,06,29,15,44,27.00
2015,06,29,15,45,26.90
2015,06,29,15,46,27.00
2015,06,29,15,47,27.00
2015,06,29,15,48,27.00
2015,06,29,15,49,27.00
2015,06,29,15,50,26.90
2015,06,29,15,51,26.90
2015,06,29,15,52,26.90
2015,06,29,15,53,26.90
2015,06,29,15,54,27.00
2015,06,29,15,55,27.00
2015,06,29,15,56,27.00
2015,06,29,15,57,26.90
2015,06,29,15,58,26.90
2015,06,29,15,59,26.80
2015,06,29,16,00,26.80
2015,06,29,16,01,26.80
2015,06,29,16,02,26.80
2015,06,29,16,03,26.70
2015,06,29,16,04,26.70
2015,06,29,16,05,26.70
2015,06,29,16,06,26.70
2015,06,29,16,07,26.70
2015,06,29,16,08,26.80
2015,06,29,16,09,26.80
2015,06,29,16,10,26.80
2015,06,29,16,11,26.80
2015,06,29,16,12,26.90
2015,06,29,16,13,27.00
2015,06,29,16,14,27.00
2015,06,29,16,15,27.00
2015,06,29,16,16,26.90
2015,06,29,16,17,26.80
2015,06,29,16,18,26.70
2015,06,29,16,19,26.70
2015,06,29,16,20,26.70
2015,06,29,16,21,26.70
2015,06,29,16,22,26.60
2015,06,29,16,23,26.70
2015,06,29,16,24,26.70
2015,06,29,16,25,26.80
2015,06,29,16,26,26.80
2015,06,29,16,27,26.80
2015,06,29,16,28,26.80
2015,06,29,16,29,26.70
2015,06,29,16,30,26.70
2015,06,29,16,31,26.70
2015,06,29,16,32,26.70
2015,06,29,16,33,26.60
2015,06,29,16,34,26.50
2015,06,29,16,35,26.40
2015,06,29,16,36,26.40
2015,06,29,16,37,26.30
2015,06,29,16,38,26.20
2015,06,29,16,39,26.20
2015,06,29,16,40,26.10
2015,06,29,16,41,26.10
2015,06,29,16,42,26.00
2015,06,29,16,43,25.90
2015,06,29,16,44,25.90
2015,06,29,16,45,25.80
2015,06,29,16,46,25.70
2015,06,29,16,47,25.70
2015,06,29,16,48,25.70
2015,06,29,16,49,25.70
2015,06,29,16,50,25.60
2015,06,29,16,51,25.60
2015,06,29,16,52,25.60
2015,06,29,16,53,25.70
2015,06,29,16,54,25.70
2015,06,29,16,55,25.70
2015,06,29,16,56,25.80
2015,06,29,16,57,25.80
2015,06,29,16,58,25.80
2015,06,29,16,59,25.90
2015,06,29,17,00,25.90
2015,06,29,17,01,25.90
2015,06,29,17,02,25.90
2015,06,29,17,03,25.90
2015,06,29,17,04,25.90
2015,06,29,17,05,26.00
2015,06,29,17,06,26.00
2015,06,29,17,07,26.00
2015,06,29,17,08,26.10
2015,06,29,17,09,26.20
2015,06,29,17,10,26.20
2015,06,29,17,11,26.30
2015,06,29,17,12,26.40
2015,06,29,17,13,26.50
2015,06,29,17,14,26.60
2015,06,29,17,15,26.70
2015,06,29,17,16,26.70
2015,06,29,17,17,26.70
2015,06,29,17,18,26.70
2015,06,29,17,19,26.70
2015,06,29,17,20,26.60
2015,06,29,17,21,26.50
2015,06,29,17,22,26.40
2015,06,29,17,23,26.40